Back to catalog

STARLINK-5636

AliveCommunicationsVLEO
NORAD 55454·PAYLOAD·🇺🇸 United States

Launched Feb 2, 2023 from Cape Canaveral Space Force Station

Loading…

Next Passes (next 24 hours)

TLE

FreshSource: CelesTrak SupGP

Epoch: Sep 14, 2026, 13:43 UTC

1 55454C 23015F   26257.57201389  .00004284  00000+0  15521-3 0  2572
2 55454  43.0018 341.9705 0001144 273.4890 302.4328 15.27567714    11

Track STARLINK-5636 in real time with AllMySat

Download on the App Store